Regional Weather Roundup
Issued by NWS Midland/Odessa, TX

Skip options and go directly to product.
Home | Oldest Version | Previous Version | Current Version | All | Text Only | Save Text | Print | Product List | Glossary On

Skip product version selection by date and time.   
755
ASUS44 KMAF 292110
RWRMAF
MIDLAND AREA WEATHER ROUNDUP
NATIONAL WEATHER SERVICE MIDLAND TX
400 PM CDT TUE JUL 29 2014

...IN SOUTHWEST TEXAS AND SOUTHEAST NEW MEXICO...

CITY           SKY/WX    TMP DP  RH WIND       PRES   REMARKS
ALPINE         MOSUNNY   89  47  24 SE7       30.24F
ANDREWS        FAIR      90  61  37 NE10G17   30.13F
ARTESIA        MOSUNNY   84  59  42 E7        30.15F
BIG SPRING     MOSUNNY  100  56  23 S6        30.11F
CARLSBAD       MOSUNNY   92  56  29 VRB3      30.11F
DRYDEN           N/A    101  55  21 SE17G24   30.04F
FORT STOCKTON  MOSUNNY   95  49  20 SE12G21   30.09F
GUAD PASS      PTSUNNY   83  58  42 E13G20    30.28F
HOBBS          MOSUNNY   84  59  42 NE9       30.19F
MARFA          PTSUNNY   88  48  25 CALM      30.24F
MIDLAND AIRPK  MOSUNNY   95  53  23 SE10      30.10F
MIDLAND INTL   MOSUNNY   95  55  26 S17G23    30.09F
ODESSA         PTSUNNY   95  52  23 MISG      30.10F
PECOS          SUNNY     99  46  16 SE6       30.05F
PRESIDIO       FAIR      98  51  20 CALM      30.04F
SEMINOLE       CLOUDY    85  60  42 NE10      30.17F
SNYDER         PTSUNNY   91  63  39 NE12      30.10F
WINK           PTSUNNY   96  50  20 S7        30.06F
$$
...OTHER STATIONS IN TEXAS...

CITY           SKY/WX    TMP DP  RH WIND       PRES   REMARKS
ABILENE        PTSUNNY   90  64  42 SE12G17   30.12S
AMARILLO       CLOUDY    79  62  56 SW9       30.20F
AUSTIN         PTSUNNY   97  67  37 NE8       30.02F HX 101
BROWNSVILLE    SUNNY     95  71  45 SE12G21   30.00F HX 102
CORPUS CHRISTI PTSUNNY   98  61  29 SE16G24   30.01F
DALLAS FTW     CLOUDY    80  58  46 CALM      30.11F
DEL RIO        SUNNY    100  54  21 E10       29.99F
EL PASO        PTSUNNY   83  60  45 CALM      30.14F
HOUSTON INT    CLOUDY    79  74  84 S3        30.08S
LUBBOCK        CLOUDY    77  65  66 E6        30.19F
SAN ANGELO     MOSUNNY   96  59  29 NE7       30.06F
SAN ANTONIO    PTSUNNY   97  62  31 SE8       30.03F
WACO           PTSUNNY   91  58  32 NE15      30.09F
WICHITA FALLS  NOT AVBL
$$
...OTHER LOCATIONS IN NEW MEXICO...

CITY           SKY/WX    TMP DP  RH WIND       PRES   REMARKS
ALAMAGORDO     MOSUNNY   84  57  39 S7        30.18F
ALBUQUERQUE    MOSUNNY   84  55  36 VRB3      30.21F
CANNON AFB     MOSUNNY   74  69  86 SW9       30.20F
CLOVIS         NOT AVBL
HOLLOMAN AFB   MOSUNNY   86  59  39 SW7       30.16F
ROSWELL        PTSUNNY   75  66  73 SE6       30.17F
RUIDOSO        CLOUDY    68  59  73 S6        30.37F
SANTA FE       LGT RAIN  68  58  70 N15       30.30S
TRUTH OR CONSE LGT RAIN  68  61  78 NE5       30.20S
TUCUMCARI      PTSUNNY   82  61  48 SW13G23   30.15F
$$

USA.gov is the U.S. government's official web portal to all federal, state and local government web resources and services.